Vertical_Velocity
-2 -1 -1 -1 -2 -2 -2 -2 -2 1 1 -0 -1 -1 -2 -0 -1 3 -1 -3 0 -1 3 1 1 1 1 0 1 -0 -2 1 0 -2 -1 -6 0 3 -5 4 -7 0 -10 0 -10 -12 -20 -4 -0 1 6 4 4 2
-0 -3 1 0 -4 -2 1 -1 -1 -0 -1 -1 -0 -0 -0 3 -2 3 6 -4 -4 -2 7 1 -2 1 -1 1 -3 1 -4 -1 -5 -1 3 4 -3 -1 -1 -10 3 -6 -2 -1 -3 -3 3 2 4 1 6 -6 -2 3
-0 5 -3 -1 1 0 0 -0 0 2 3 1 -0 -1 1 1 -1 4 7 -1 -3 -2 -5 3 4 -2 3 3 2 -1 -0 -4 -1 1 -1 -1 -8 -2 -3 3 1 -10 -4 -1 -8 -1 3 0 2 -3 1 7 -4 -1
-2 -3 3 1 3 1 1 2 2 1 1 4 2 3 1 4 3 6 2 -6 3 1 -16 10 4 5 1 2 -0 -2 -2 2 -3 0 -1 3 -8 -1 1 0 -1 -9 -4 -5 4 -1 -3 -3 6 5 5 1 9 2
1 3 -2 3 -0 2 4 3 7 1 5 7 5 4 7 4 2 2 4 -5 2 7 -9 4 7 4 -0 1 2 1 3 -1 -3 -2 -0 -2 4 -15 2 9 1 3 -0 -2 -7 -1 0 -2 -1 -3 -4 2 1 -2
3 -3 -2 1 1 1 4 2 3 8 8 4 9 7 10 8 2 -3 -21 -3 16 6 -16 0 4 -2 1 2 2 0 -2 -3 -5 1 2 6 2 -10 -11 -0 -1 4 -1 1 -4 -3 -3 1 -4 -1 -2 0 -2 -1
-1 0 -1 4 -0 -4 -3 -1 7 7 1 8 14 12 14 20 12 -6 -14 -3 16 7 -5 -8 -20 4 9 5 2 -1 -0 -1 -5 -9 7 -6 5 -4 -9 -3 -2 -4 -4 -5 -3 -1 -2 -2 -2 -3 -2 -3 1 -2
-3 3 -3 4 -0 -0 3 1 -1 2 -2 -6 19 17 20 -2 10 4 -3 -2 15 9 13 -23 -23 -8 12 12 0 9 -1 -0 0 -11 6 -0 2 13 -19 -3 0 -1 -2 -3 -2 -1 -0 1 0 -2 -2 -1 -4 0
-1 -2 -6 8 6 -1 2 -2 -0 3 -3 -1 2 21 15 6 12 9 10 12 -1 11 8 -15 1 -6 -7 9 10 14 3 -2 -13 -2 6 -11 14 21 -17 -5 -1 -4 -3 -1 0 -2 0 -5 0 -3 -2 -4 -3 -2
0 6 -4 1 2 4 4 -6 5 -0 -8 14 4 -1 4 0 12 25 25 14 12 1 -14 -18 0 -4 13 8 8 12 10 3 -15 2 -5 -12 16 34 -16 -3 -1 -4 -2 -3 -3 -0 1 -1 -1 -5 -5 -1 -3 0
2 -4 0 5 4 -2 11 4 -9 -3 -3 4 13 17 1 8 9 11 22 12 6 -14 -22 -19 -8 5 14 9 13 12 2 -1 -10 -6 0 -25 28 9 -4 1 1 -1 -1 -4 -2 -5 -5 -1 3 -4 -6 -3 -4 -2
-1 3 -3 3 7 -2 10 11 -11 -1 0 16 10 17 7 8 9 24 6 2 -23 -21 -37 -16 -2 7 7 5 10 10 8 4 -4 -1 -12 -12 41 -1 2 0 -1 -2 -2 -2 1 0 -2 -1 -0 -2 -4 -5 -6 -2
-7 -0 -5 4 4 8 12 2 -2 -10 22 12 -1 4 16 2 8 -12 -26 -27 -13 4 12 18 7 5 8 6 11 18 12 -3 12 -12 -24 29 9 -1 1 -3 -7 -2 -4 -3 -3 -4 -2 0 1 -1 -1 -3 -3 -3
-2 -1 3 1 2 14 12 -1 -8 15 8 4 5 -3 18 -6 -22 -17 10 11 7 2 3 8 -6 0 -6 8 17 10 6 2 -15 -21 21 9 -1 8 -2 -4 -4 -3 3 4 2 1 -1 -1 -2 -3 -2 -4 -3 -2
4 2 -0 2 5 13 17 -4 7 5 10 6 4 -11 -13 1 -3 2 -4 1 7 5 2 -3 5 15 10 12 2 -5 -2 -18 -25 16 13 -6 2 2 4 1 -2 -3 -4 -6 -4 -2 -1 2 2 -4 -7 -3 -4 -1
6 -2 1 12 10 15 10 0 -3 12 9 8 -8 -18 -13 -4 2 -1 12 2 6 4 7 13 3 1 -1 1 -4 -3 -10 -21 20 20 -3 0 -4 -4 1 -1 0 -0 -1 -4 -6 -3 -4 -0 -2 1 -6 -2 -2 -4
5 -1 17 9 7 17 7 -3 2 8 6 -9 -14 -6 -13 -5 -2 6 -1 4 13 3 1 15 4 3 2 -6 -13 -13 -18 24 3 5 -4 1 -9 -5 -1 -3 -2 -2 2 -0 0 -2 -8 -6 -1 -7 -1 -6 -8 -1
-7 13 14 9 9 3 -8 6 5 -5 -13 -11 -5 -1 -7 3 -4 7 -1 1 10 9 15 10 13 -4 -2 -10 1 -1 0 -3 5 4 2 -5 -3 -8 -4 -4 -2 -2 3 2 0 2 1 -1 -5 -6 -4 -6 -3 -5
12 9 10 4 3 8 4 2 1 -13 -7 3 -7 5 -0 0 3 -0 4 4 2 10 13 11 6 -15 -1 8 11 -10 -5 2 3 4 -1 -1 -3 -6 -4 -5 -2 -2 -1 0 -1 2 -5 2 -0 -7 -1 -6 -3 -5
11 13 7 3 10 8 6 -2 1 -3 -11 -15 -4 -7 -0 3 7 7 11 8 9 14 13 -10 -14 10 12 6 1 -1 -3 0 4 4 0 -3 -3 -2 -1 -0 -3 -2 -0 3 2 -1 -6 0 -4 -6 -3 -2 -4 -4
4 3 -4 2 2 2 -3 -5 -5 -9 -2 -9 2 5 -1 -0 -2 4 6 11 7 1 -9 5 16 11 10 5 5 -1 3 -5 -4 12 6 1 -2 -2 -2 -5 -1 -1 1 4 1 -4 -2 1 -3 3 -1 -3 -7 -6
8 1 6 4 0 3 0 -7 -5 -3 -3 -1 8 0 -1 -1 10 7 14 12 3 -7 -7 16 20 12 7 5 4 -4 1 6 -7 3 8 1 1 -4 -1 3 -7 -2 4 2 2 0 -1 -4 -3 5 -3 -5 -8 -6
6 1 -0 3 -0 -5 -8 7 -2 -1 -1 -1 5 -2 -9 0 -0 13 5 10 -13 3 11 22 16 3 -1 -4 7 3 2 9 -3 2 10 1 -5 -1 -1 0 -1 -10 1 6 -1 2 -0 -1 1 1 -4 -4 -6 -6
7 3 4 3 -1 -5 -6 -5 -4 -5 -5 -2 3 -3 0 0 6 -3 -9 4 17 0 3 7 0 -4 -3 1 12 7 4 8 3 -0 3 2 1 -2 6 -1 -2 -1 -8 -0 1 2 -0 -1 2 -0 -3 -6 -5 -5
2 5 0 -6 -10 -3 -6 -0 1 -2 -3 7 4 0 1 7 6 1 -3 26 4 -2 0 -2 -11 -1 -0 -2 7 2 0 5 4 3 1 -1 1 0 -0 0 -1 0 -6 2 -1 -1 1 -0 1 -0 -2 -4 -6 -4
1 -4 -6 0 1 1 2 4 3 3 4 2 -3 -6 -0 8 7 -11 -4 21 6 6 1 -1 -0 0 6 11 -0 5 10 7 4 1 10 1 -0 3 3 4 -1 -4 -4 -1 3 -0 1 -0 0 -3 -3 -4 -5 -3
-6 -1 5 7 4 6 3 4 5 3 4 0 3 6 2 -4 -10 -16 6 11 8 2 1 3 1 5 7 8 2 5 2 -0 5 4 -2 4 9 3 -1 0 -2 3 -3 -1 3 1 -0 -2 -2 -3 -3 -4 -5 -3
-1 1 1 1 -2 3 1 2 -1 -0 -1 -2 1 4 -1 -11 -10 4 5 4 7 7 9 8 4 1 6 6 1 6 8 3 7 7 -2 6 8 5 3 1 -1 -1 -1 -0 0 -0 -0 -2 -2 -3 -4 -3 -5 -4
1 1 -1 3 3 2 0 3 5 4 6 4 0 5 -1 2 3 -0 1 2 2 4 6 2 3 0 -0 0 10 10 9 1 3 9 6 2 2 3 3 3 -3 1 0 -1 -1 -1 -1 -2 -2 -3 -4 -2 -3 -4
2 6 9 7 4 2 6 5 9 6 4 3 2 1 1 -0 2 2 -1 -2 -1 2 6 8 4 3 6 3 6 8 5 2 11 9 2 4 -4 2 5 -1 -1 2 1 -0 -2 0 0 -3 -2 -3 -3 -1 -3 -4
5 5 4 3 6 6 3 2 2 0 -1 2 5 2 2 2 2 1 -1 -1 -2 -0 4 5 4 3 4 5 4 7 5 7 4 2 3 3 4 2 2 0 -1 2 2 0 1 0 -2 -2 -2 -2 -2 -2 -4 -6
0 -1 -1 3 4 2 2 0 0 -4 -1 3 3 2 2 3 2 1 0 -0 1 1 5 10 4 5 6 2 5 7 4 6 6 8 8 7 5 3 1 1 2 3 2 0 1 -0 -1 -2 -3 -3 -4 -4 -2 -3
1 0 0 1 4 5 5 2 1 -0 3 4 3 2 3 3 3 1 1 1 1 -1 1 5 6 6 5 5 4 5 6 7 7 5 4 2 1 1 1 3 2 2 2 1 -1 -0 -0 -2 -3 -3 -3 -3 -2 -3
Height
5731 5734 5738 5740 5743 5746 5749 5751 5754 5756 5758 5760 5762 5764 5765 5765 5765 5765 5766 5765 5763 5762 5763 5762 5761 5761 5759 5757 5754 5751 5748 5744 5739 5735 5732 5728 5721 5714 5709 5703 5693 5687 5679 5670 5659 5647 5636 5623 5613 5603 5594 5580 5565 5552
5718 5721 5724 5727 5731 5734 5738 5740 5741 5744 5747 5749 5749 5751 5753 5753 5753 5753 5755 5753 5751 5751 5753 5752 5752 5752 5749 5747 5745 5743 5740 5736 5731 5727 5725 5721 5715 5708 5704 5698 5692 5684 5677 5668 5658 5645 5634 5623 5613 5603 5593 5581 5570 5556
5703 5707 5711 5712 5716 5721 5724 5728 5731 5733 5735 5736 5738 5739 5739 5740 5741 5742 5744 5740 5740 5739 5739 5741 5743 5740 5738 5735 5735 5734 5731 5727 5724 5720 5717 5714 5710 5704 5699 5693 5687 5679 5673 5666 5656 5646 5632 5621 5611 5603 5594 5584 5570 5558
5686 5691 5694 5699 5701 5705 5710 5712 5715 5719 5721 5723 5724 5725 5726 5726 5727 5729 5730 5730 5729 5728 5728 5730 5730 5729 5727 5724 5723 5723 5720 5718 5716 5712 5708 5705 5703 5698 5693 5687 5681 5673 5668 5661 5654 5643 5632 5620 5612 5604 5595 5585 5573 5560
5671 5672 5678 5679 5685 5688 5691 5694 5697 5701 5705 5708 5709 5709 5712 5713 5713 5713 5715 5717 5717 5716 5717 5717 5716 5717 5715 5713 5713 5713 5711 5709 5707 5704 5701 5698 5695 5690 5686 5681 5676 5668 5663 5656 5649 5640 5629 5618 5609 5602 5594 5585 5575 5565
5654 5659 5661 5664 5664 5668 5672 5676 5680 5683 5687 5692 5695 5696 5697 5698 5697 5698 5701 5705 5704 5704 5702 5703 5707 5706 5703 5703 5704 5703 5701 5699 5698 5695 5692 5690 5684 5680 5677 5674 5669 5663 5658 5651 5644 5635 5625 5615 5606 5598 5591 5583 5574 5564
5635 5640 5645 5648 5651 5651 5654 5655 5662 5666 5669 5674 5679 5683 5682 5681 5681 5681 5688 5690 5688 5687 5687 5688 5693 5695 5693 5692 5693 5690 5690 5689 5688 5686 5682 5680 5675 5670 5669 5663 5661 5655 5649 5643 5637 5630 5621 5611 5603 5594 5587 5579 5571 5564
5618 5620 5624 5628 5631 5634 5634 5637 5637 5644 5652 5658 5661 5663 5661 5663 5662 5663 5669 5669 5670 5671 5673 5673 5682 5682 5679 5680 5679 5678 5678 5677 5678 5675 5673 5670 5664 5660 5658 5654 5651 5646 5641 5635 5628 5622 5615 5607 5598 5590 5584 5576 5569 5562
5597 5601 5604 5606 5609 5613 5614 5616 5617 5620 5626 5639 5643 5642 5642 5645 5648 5650 5651 5650 5650 5655 5651 5661 5667 5668 5666 5664 5663 5663 5665 5664 5664 5663 5661 5659 5656 5653 5646 5644 5641 5637 5632 5626 5620 5614 5607 5601 5593 5586 5580 5573 5566 5558
5574 5577 5583 5585 5587 5591 5594 5593 5595 5597 5605 5614 5623 5622 5622 5629 5632 5635 5628 5625 5624 5626 5633 5645 5653 5653 5654 5652 5649 5651 5651 5649 5649 5652 5647 5647 5649 5643 5635 5633 5632 5628 5623 5618 5612 5605 5598 5592 5586 5580 5574 5568 5562 5555
5548 5554 5558 5562 5564 5564 5568 5571 5569 5575 5580 5585 5594 5597 5603 5608 5611 5608 5603 5604 5605 5609 5622 5636 5641 5638 5637 5638 5640 5639 5636 5634 5635 5638 5634 5636 5639 5630 5627 5623 5621 5618 5614 5608 5602 5596 5590 5584 5579 5574 5568 5562 5556 5550
5521 5527 5532 5536 5540 5541 5543 5542 5544 5553 5558 5560 5566 5571 5574 5580 5582 5582 5580 5587 5594 5602 5614 5622 5624 5624 5625 5627 5626 5624 5620 5619 5620 5625 5624 5624 5629 5617 5616 5613 5611 5607 5604 5599 5593 5587 5581 5576 5571 5566 5561 5555 5549 5543
5493 5498 5503 5508 5513 5517 5519 5516 5522 5531 5536 5534 5536 5543 5550 5550 5549 5555 5567 5580 5586 5595 5601 5606 5606 5606 5607 5610 5607 5606 5603 5604 5607 5609 5613 5618 5608 5605 5603 5601 5598 5596 5592 5588 5584 5579 5573 5567 5562 5559 5554 5547 5541 5536
5463 5470 5474 5480 5486 5492 5494 5495 5503 5512 5512 5511 5513 5516 5519 5524 5531 5547 5560 5568 5574 5578 5582 5584 5584 5584 5588 5590 5588 5589 5589 5591 5592 5598 5604 5599 5595 5592 5588 5587 5586 5583 5579 5576 5573 5568 5565 5560 5556 5551 5546 5539 5532 5526
5434 5442 5449 5456 5463 5468 5471 5474 5485 5488 5491 5490 5490 5490 5498 5512 5523 5533 5540 5549 5557 5559 5561 5563 5566 5568 5569 5565 5569 5571 5572 5575 5582 5588 5584 5582 5580 5579 5577 5576 5574 5570 5566 5565 5562 5558 5554 5549 5547 5542 5537 5531 5524 5517
5408 5416 5427 5436 5443 5449 5449 5454 5461 5469 5468 5467 5469 5474 5487 5496 5510 5519 5525 5531 5540 5543 5545 5545 5545 5546 5547 5549 5552 5555 5558 5567 5573 5567 5566 5567 5567 5567 5565 5564 5561 5559 5556 5554 5551 5548 5544 5541 5537 5534 5528 5520 5514 5508
5384 5396 5410 5418 5424 5428 5426 5433 5442 5447 5447 5446 5456 5464 5473 5482 5492 5503 5508 5515 5521 5525 5528 5528 5527 5529 5530 5531 5539 5543 5551 5554 5551 5551 5552 5553 5554 5554 5553 5552 5549 5547 5545 5543 5541 5538 5536 5531 5527 5523 5519 5511 5504 5498
5365 5383 5392 5397 5402 5406 5410 5419 5422 5424 5428 5437 5447 5457 5462 5470 5475 5484 5493 5499 5505 5508 5510 5512 5512 5512 5518 5523 5531 5533 5533 5536 5537 5539 5540 5541 5540 5540 5540 5540 5538 5535 5533 5531 5528 5525 5523 5521 5517 5512 5507 5500 5493 5487
5356 5368 5374 5379 5387 5392 5397 5403 5407 5412 5421 5431 5438 5445 5450 5457 5462 5468 5476 5482 5487 5489 5489 5493 5494 5504 5511 5515 5516 5518 5521 5524 5525 5526 5527 5527 5528 5527 5527 5526 5524 5523 5522 5519 5516 5514 5511 5509 5507 5502 5496 5489 5482 5476
5343 5351 5358 5364 5373 5378 5383 5389 5397 5402 5409 5417 5425 5430 5436 5446 5450 5455 5460 5464 5467 5468 5468 5475 5489 5497 5497 5499 5501 5504 5507 5510 5511 5513 5513 5513 5514 5515 5514 5514 5513 5512 5510 5509 5508 5505 5502 5499 5496 5492 5485 5477 5471 5465
5328 5337 5344 5354 5361 5368 5372 5380 5386 5393 5399 5405 5413 5418 5425 5432 5436 5440 5444 5446 5445 5449 5459 5469 5475 5475 5479 5482 5486 5490 5493 5496 5497 5498 5499 5500 5499 5501 5501 5502 5501 5500 5498 5497 5495 5493 5491 5487 5484 5480 5474 5466 5461 5454
5325 5333 5340 5345 5350 5357 5362 5369 5376 5383 5389 5395 5401 5406 5413 5418 5422 5425 5428 5427 5431 5441 5448 5455 5455 5456 5461 5466 5471 5476 5478 5480 5484 5484 5485 5485 5485 5488 5489 5489 5487 5487 5487 5485 5483 5481 5479 5476 5472 5468 5461 5456 5450 5443
5321 5327 5333 5338 5342 5347 5354 5360 5364 5371 5377 5383 5390 5395 5401 5405 5408 5411 5410 5416 5423 5432 5431 5433 5435 5439 5446 5452 5457 5461 5464 5465 5468 5470 5471 5475 5475 5475 5476 5476 5475 5474 5473 5473 5472 5469 5467 5464 5460 5455 5450 5445 5439 5433
5316 5322 5327 5330 5333 5338 5345 5351 5356 5363 5368 5373 5380 5385 5391 5394 5397 5397 5400 5409 5417 5411 5411 5414 5419 5425 5432 5439 5442 5445 5448 5449 5452 5456 5460 5460 5459 5460 5461 5463 5462 5463 5462 5460 5458 5456 5454 5451 5447 5443 5438 5434 5429 5423
5312 5316 5319 5322 5327 5333 5338 5344 5349 5355 5360 5365 5370 5375 5380 5384 5385 5387 5392 5396 5397 5397 5398 5402 5409 5414 5419 5422 5425 5431 5434 5436 5439 5443 5444 5443 5444 5446 5448 5449 5450 5450 5449 5447 5446 5444 5442 5439 5436 5432 5428 5424 5419 5413
5308 5311 5315 5319 5324 5329 5334 5339 5344 5349 5354 5358 5362 5366 5372 5372 5372 5376 5381 5382 5382 5384 5387 5391 5397 5402 5407 5409 5414 5418 5421 5423 5425 5428 5429 5431 5432 5431 5435 5436 5436 5437 5436 5433 5432 5431 5430 5428 5425 5422 5417 5412 5408 5402
5302 5306 5310 5317 5322 5327 5332 5336 5340 5343 5346 5349 5353 5356 5359 5360 5361 5368 5372 5370 5370 5372 5376 5379 5384 5390 5394 5397 5401 5403 5406 5408 5412 5414 5416 5417 5418 5420 5422 5423 5424 5423 5421 5420 5420 5419 5417 5416 5413 5411 5406 5401 5397 5392
5302 5308 5313 5317 5320 5324 5327 5330 5333 5335 5337 5340 5343 5345 5347 5351 5356 5357 5358 5357 5358 5359 5362 5366 5371 5377 5381 5384 5386 5388 5391 5394 5396 5399 5402 5403 5403 5404 5407 5409 5409 5408 5408 5408 5408 5407 5405 5403 5401 5399 5394 5390 5386 5381
5303 5307 5310 5313 5316 5319 5322 5325 5327 5329 5331 5332 5334 5336 5338 5340 5341 5342 5345 5346 5346 5347 5349 5354 5358 5362 5367 5372 5374 5375 5378 5382 5387 5387 5388 5388 5390 5392 5392 5393 5394 5394 5395 5395 5395 5394 5392 5391 5388 5385 5381 5378 5374 5371
5300 5304 5307 5310 5313 5315 5317 5318 5320 5321 5323 5324 5326 5327 5328 5329 5330 5331 5333 5335 5336 5337 5338 5341 5344 5348 5353 5357 5360 5363 5366 5367 5368 5370 5372 5374 5377 5379 5379 5379 5380 5381 5381 5382 5381 5380 5378 5377 5375 5371 5368 5365 5363 5360
5299 5301 5303 5305 5307 5308 5308 5310 5311 5313 5315 5316 5316 5316 5316 5317 5318 5320 5322 5323 5325 5326 5327 5329 5332 5337 5341 5343 5347 5350 5353 5355 5357 5358 5359 5360 5363 5364 5365 5366 5366 5367 5368 5368 5367 5366 5364 5362 5360 5357 5355 5353 5351 5348
5295 5296 5297 5299 5300 5301 5301 5301 5302 5304 5305 5306 5306 5305 5305 5305 5307 5309 5310 5312 5314 5316 5318 5321 5323 5326 5329 5333 5336 5338 5340 5343 5346 5348 5349 5349 5349 5350 5351 5352 5352 5353 5353 5353 5352 5350 5349 5348 5345 5343 5342 5340 5337 5335
5288 5289 5290 5290 5292 5293 5294 5294 5294 5295 5296 5297 5297 5297 5297 5298 5298 5300 5300 5302 5304 5307 5310 5312 5314 5317 5319 5320 5322 5326 5329 5330 5331 5333 5334 5334 5335 5336 5338 5338 5339 5339 5338 5337 5335 5334 5334 5332 5330 5329 5327 5325 5323 5321